Location: DARK SKY Beskydy - Park tmavé oblohy, www.darkskybeskydy.cz
(49.4926°N, 18.5016°E)
Time: 21:36:27
(UTC+02:00)

Altair - Pass Details

Date: 22 July 2024
Orbit: 1501 x 1682 km, 47.2° (Epoch: 28 April)

Event Time Altitude Azimuth Distance (km) Brightness Sun altitude
Rises 01:13:52 0° 288° (WNW) 4,641 10.2 -20.1°
Reaches altitude 10° 01:17:23 10° 278° (W) 3,654 9.5 -20.1°
Maximum altitude 01:24:47 29° 224° (SW) 2,496 8.2 -19.9°
Enters shadow 01:26:29 27° 206° (SSW) 2,574 8.1 -19.9°
